Terminal Aerodrome Forecast
Issued by NWS

Home | Current Version | Previous Version | Text Only | Print | Product List | Glossary On
Versions: 1 2 3 4 5 6 7 8 9 10 11 12 13 14 15 16
000
FTUS45 KABQ 051300 AAA
TAFAEG
TAF AMD
KAEG 051325Z 0513/0612 22006KT P6SM SCT025 OVC035
      TEMPO 0513/0515 BKN025
     FM051800 25010KT P6SM SCT050 BKN100
     FM052000 24013G23KT P6SM VCSH SCT050 BKN100
     FM052200 26017G27KT P6SM VCTS BKN050CB
      TEMPO 0522/0601 VRB25G35KT 6SM TSRA OVC035CB
     FM060200 28012KT P6SM SCT025 BKN050
      TEMPO 0608/0612 4SM BR OVC015=

USA.gov is the U.S. government's official web portal to all federal, state and local government web resources and services.